DateTimeUTC,F1_A11,F1_S11,BsB_S11,BsG_S11,BsR_S11,BbsB_S11,BbsG_S11,BbsR_S11,BaB_A11,BaG_A11,BaR_A11,Tu_S11,T_S11,Uu_S11,U_S11,P_S11,T1_A11
2021-09-30T20:00:00Z,00000200,21000000,,,,,,,-000.08,0000.12,-000.17,16.6,24.0,,00.0,0673.1,30.9
2021-09-30T20:01:00Z,00000200,21000000,,,,,,,0000.13,0000.06,0000.26,16.6,24.0,,00.0,0673.1,31.0
2021-09-30T20:02:00Z,00000200,21000000,,,,,,,0000.15,0000.02,0000.21,16.6,24.0,,00.0,0673.1,31.0
2021-09-30T20:03:00Z,00000200,61000000,,,,,,,0000.09,0000.00,0000.00,16.7,24.1,,00.0,0673.1,31.0
2021-09-30T20:04:00Z,00000200,41000000,0000.13,0000.24,0000.47,0000.35,-000.08,0000.15,0000.23,0000.45,-000.32,17.1,24.0,,00.0,0674.1,31.0
2021-09-30T20:05:00Z,00000200,01000000,0000.29,-000.14,0000.12,0000.25,0000.35,0000.13,0000.06,-000.06,0000.37,17.2,23.9,,00.0,0674.1,31.0
2021-09-30T20:06:00Z,00000200,01000000,-000.23,-000.03,-000.04,-000.11,0000.00,0000.14,0000.16,-000.17,0000.03,17.2,23.9,,00.0,0674.1,31.0
2021-09-30T20:07:00Z,00000200,01000000,0000.21,0000.39,0000.07,-000.14,0000.09,0000.13,-000.10,0000.27,-000.30,17.1,23.9,,00.0,0674.1,31.0
2021-09-30T20:08:00Z,00000200,01000000,-000.50,0000.21,0000.12,0000.14,0000.12,0000.46,0000.20,-000.14,0000.21,17.1,23.8,,00.0,0674.1,31.0
2021-09-30T20:09:00Z,00000200,01000000,0000.73,0000.19,0000.15,0000.11,0000.02,0000.18,0000.08,0000.26,0000.08,17.0,23.8,,00.0,0674.1,30.9
2021-09-30T20:10:00Z,00000200,01000000,0000.43,0000.32,0000.20,0000.32,0000.25,0000.49,0004.28,0003.83,0003.01,17.0,23.8,,00.0,0674.1,30.9
2021-09-30T20:11:00Z,00000200,01000000,0001.89,0001.17,0000.75,0001.10,0000.38,0000.50,0039.84,0036.07,0026.47,16.9,23.7,,00.0,0674.2,30.9
2021-09-30T20:12:00Z,00000200,01000000,0001.20,0001.15,0000.50,0000.53,0000.69,0000.01,0034.60,0030.58,0023.82,16.9,23.7,,00.0,0674.2,30.9
2021-09-30T20:13:00Z,00000200,01000000,0000.40,0000.38,0000.44,-000.03,0000.14,0000.39,0013.07,0012.11,0009.06,16.8,23.7,,00.0,0674.2,30.9
2021-09-30T20:14:00Z,00000200,01000000,0001.11,0000.41,0000.45,0000.99,0000.44,0000.06,0019.08,0017.23,0013.19,16.9,23.7,,00.0,0674.2,30.9
2021-09-30T20:15:00Z,00000200,01000000,0000.83,0000.39,0000.53,0000.01,0000.19,0000.24,0014.52,0012.81,0009.85,16.9,23.7,,00.0,0674.2,30.9
2021-09-30T20:16:00Z,00000200,01000000,0000.62,0000.61,0000.57,-000.55,0000.32,0000.32,0012.87,0011.64,0008.77,17.0,23.7,,00.0,0674.2,30.9
2021-09-30T20:17:00Z,00000200,01000000,0000.80,0000.49,0000.23,0000.27,0000.25,-000.07,0016.64,0014.82,0011.31,17.1,23.8,,00.0,0674.3,31.0
2021-09-30T20:18:00Z,00000200,01000000,0000.30,-000.13,0000.07,0000.31,0000.27,-000.21,0003.81,0003.63,0002.79,17.1,23.8,,00.0,0674.3,31.0
2021-09-30T20:19:00Z,00000200,01000000,-000.03,0000.13,0000.15,0000.06,-000.31,-000.07,0000.15,0000.20,0000.10,17.2,23.8,,00.0,0674.3,31.0
2021-09-30T20:20:00Z,00000200,01000000,-000.57,0000.41,0000.17,0000.08,0000.14,-000.18,0000.19,0000.40,0000.38,17.2,23.8,,00.0,0674.3,31.0
2021-09-30T20:21:00Z,00000200,01000000,-000.04,0000.03,0000.15,0000.35,0000.45,-000.03,-000.01,-000.24,-000.13,17.1,23.8,,00.0,0674.3,30.9
2021-09-30T20:22:00Z,00000200,01000000,0000.48,0000.39,0000.38,0000.12,-000.14,0000.07,0000.30,0000.30,-000.06,17.1,23.8,,00.0,0674.3,31.0
2021-09-30T20:23:00Z,00000200,01000000,0000.13,0000.09,0000.51,0000.18,-000.27,0000.61,0000.20,-000.03,0000.03,17.0,23.7,,00.0,0674.3,31.0
2021-09-30T20:24:00Z,00000200,01000000,0000.39,0000.32,0000.26,0000.25,-000.15,0000.09,0000.20,0000.51,0000.67,16.9,23.7,,00.0,0674.3,30.9
2021-09-30T20:25:00Z,00000200,01000000,0000.34,0000.40,0000.11,0000.67,0000.10,0000.17,0000.53,0000.34,0000.05,16.9,23.7,,00.0,0674.2,30.9
2021-09-30T20:26:00Z,00000200,01000000,0000.61,0000.33,0000.36,-000.03,0000.08,0000.15,0000.53,0000.27,-000.15,16.8,23.7,,00.0,0674.2,30.9
2021-09-30T20:27:00Z,00000200,01000000,0000.52,0000.51,0000.10,0000.85,0000.33,0000.12,0000.31,0000.31,0000.77,16.8,23.6,,00.0,0674.3,30.9
2021-09-30T20:28:00Z,00000200,01000000,0000.01,-000.29,0000.10,0000.68,0000.14,0000.16,0000.50,0000.31,-000.03,16.8,23.6,,00.0,0674.3,30.9
2021-09-30T20:29:00Z,00000200,01000000,0000.09,0000.36,0000.37,-000.22,0000.29,0000.05,0000.22,0000.28,0000.26,16.8,23.6,,00.0,0674.3,30.9
2021-09-30T20:30:00Z,00000200,01000000,0000.75,-000.08,0000.08,-000.12,0000.19,0000.18,0000.13,0000.55,0000.32,16.8,23.6,,00.0,0674.3,30.9
2021-09-30T20:31:00Z,00000200,01000000,0000.00,0000.09,0000.03,-000.11,0000.16,0000.41,0000.22,0000.29,0000.11,16.9,23.6,,00.0,0674.4,30.9
2021-09-30T20:32:00Z,00000200,01000000,-000.13,0000.27,0000.08,0000.26,-000.27,0000.14,0000.42,-000.04,0000.40,17.0,23.7,,00.0,0674.4,30.9
2021-09-30T20:33:00Z,00000200,01000000,0000.38,0000.44,0000.45,-000.40,0000.02,0000.21,0000.39,0000.37,0000.22,17.0,23.7,,00.0,0674.4,31.0
2021-09-30T20:34:00Z,00000200,01000000,0000.64,0000.26,0000.44,0000.18,0000.20,0000.39,-000.02,0000.36,0000.19,17.1,23.7,,00.0,0674.4,31.0
2021-09-30T20:35:00Z,00000200,01000000,-000.14,0000.21,0000.28,0000.08,0000.39,0000.22,0000.07,-000.24,-000.48,17.1,23.7,,00.0,0674.4,31.0
2021-09-30T20:36:00Z,00000200,01000000,-000.32,-000.08,0000.24,0000.38,-000.07,0000.16,-000.08,-000.08,0000.27,17.1,23.7,,00.0,0674.4,31.0
2021-09-30T20:37:00Z,00000200,01000000,-000.18,0000.15,0000.22,-000.01,0000.34,0000.08,0000.22,0000.41,0000.04,17.0,23.7,,00.0,0674.4,30.9
2021-09-30T20:38:00Z,00000200,01000000,0001.15,-000.26,-000.07,0000.14,-000.05,0000.23,0000.06,-000.03,-000.14,17.0,23.7,,00.0,0674.4,30.9
2021-09-30T20:39:00Z,00000200,01000000,-000.14,0000.37,0000.04,0000.35,0000.09,0000.23,-000.09,-000.23,0000.11,16.9,23.7,,00.0,0674.4,30.9
2021-09-30T20:40:00Z,00000200,01000000,-000.54,-000.13,0000.13,0001.02,0000.24,-000.01,0000.26,0000.05,-000.02,16.9,23.6,,00.0,0674.3,30.9
2021-09-30T20:41:00Z,00000200,01000000,0000.71,0000.20,0000.20,0000.79,0000.20,0000.16,0000.16,0000.30,0000.09,16.8,23.6,,00.0,0674.4,30.9
2021-09-30T20:42:00Z,00000200,01000000,0000.29,0000.20,0000.13,0000.09,-000.39,-000.30,0000.26,0000.47,0000.13,16.8,23.6,,00.0,0674.4,30.9
2021-09-30T20:43:00Z,00000200,01000000,-000.28,0000.12,0000.05,0000.07,0000.13,0000.46,0000.42,-000.16,0000.26,16.7,23.5,,00.0,0674.4,30.9
2021-09-30T20:44:00Z,00000200,01000000,0000.24,0000.15,0000.08,0000.30,0000.02,0000.36,0000.02,0000.33,0000.42,16.7,23.5,,00.0,0674.4,30.9
2021-09-30T20:45:00Z,00000200,01000000,0000.81,0000.23,0000.16,0000.59,0000.25,0000.28,0000.35,0000.52,-000.13,16.8,23.5,,00.0,0674.4,30.9
2021-09-30T20:46:00Z,00000200,01000000,0000.28,0000.05,0000.76,0000.64,0000.24,0000.22,-000.04,0000.12,0000.18,16.8,23.6,,00.0,0674.4,30.9
2021-09-30T20:47:00Z,00000200,01000000,0000.73,0000.04,0000.20,-000.24,0000.06,0000.30,0000.30,0000.27,0000.22,16.9,23.6,,00.0,0674.5,30.9
2021-09-30T20:48:00Z,00000200,01000000,0000.03,0000.14,0000.29,0000.34,0000.00,0000.03,0000.63,-000.03,0000.21,17.0,23.6,,00.0,0674.5,30.9
2021-09-30T20:49:00Z,00000200,01000000,0000.03,0000.25,0000.15,0000.52,-000.04,0000.04,0000.17,0000.24,0000.13,17.0,23.6,,00.0,0674.5,31.0
2021-09-30T20:50:00Z,00000200,01000000,0000.78,0000.13,0000.06,0000.55,0000.20,0000.17,-000.05,0000.47,0000.17,17.1,23.7,,00.0,0674.5,31.0
2021-09-30T20:51:00Z,00000200,01000000,-000.08,0000.23,0000.14,-000.03,0000.06,0000.14,0000.21,-000.14,-000.14,17.1,23.7,,00.0,0674.5,31.0
2021-09-30T20:52:00Z,00000200,01000000,0000.41,0000.31,0000.26,0000.04,0000.06,0000.28,0000.02,-000.13,0000.05,17.1,23.7,,00.0,0674.5,31.0
2021-09-30T20:53:00Z,00000200,01000000,0000.19,-000.28,0000.13,0000.16,0000.19,-000.25,0000.15,0000.42,-000.03,17.0,23.7,,00.0,0674.5,30.9
2021-09-30T20:54:00Z,00000200,01000000,0000.52,-000.10,0000.21,-000.05,-000.04,0000.20,0000.16,0000.03,0000.23,17.0,23.7,,00.0,0674.5,30.9
2021-09-30T20:55:00Z,00000200,01000000,0000.22,0000.27,0000.32,0000.57,-000.03,0000.04,0000.14,0000.12,0000.08,16.9,23.6,,00.0,0674.5,30.9
2021-09-30T20:56:00Z,00000200,01000000,0000.26,0000.43,0000.34,0000.07,-000.24,0000.12,0000.30,0000.00,0000.22,16.9,23.6,,00.0,0674.4,30.9
2021-09-30T20:57:00Z,00000200,41000000,,,,,,,0000.31,0000.37,0000.02,16.9,23.5,,00.0,0674.5,30.9
2021-09-30T20:58:00Z,00000200,61000000,,,,,,,0000.05,-000.24,0000.01,16.4,23.7,,00.0,0673.5,30.9
2021-09-30T20:59:00Z,00000200,21000000,,,,,,,-000.06,0000.18,0000.01,16.4,23.8,,00.0,0673.5,30.9
